Weather reports worldwide

Advertisment
Genova/Sestri, Italy (16120): temperature & dewpoint: 18.01.2019 00:00:00 - 24.01.2019 00:00:00 (CET)Genova/Sestri, Italy (16120): wind speed: 18.01.2019 00:00:00 - 24.01.2019 00:00:00 (CET)Genova/Sestri, Italy (16120): wind direction: 18.01.2019 00:00:00 - 24.01.2019 00:00:00 (CET)Genova/Sestri, Italy (16120): reduced air pressure: 18.01.2019 00:00:00 - 24.01.2019 00:00:00 (CET)Genova/Sestri, Italy (16120): visibility: 18.01.2019 00:00:00 - 24.01.2019 00:00:00 (CET)
Date & Time tt [°C] td [°C] ff [km/h] ff [kn] dd ppp [hPa] vv [km]
24.01.2019 00:00:00 4,0 -1,0 15 8 NNE - 10
23.01.2019 23:00:00 3,0 -1,0 5 3 - - 10
23.01.2019 22:00:00 2,5 -1,2 8 4 ENE 992,8 10
23.01.2019 21:00:00 2,0 -2,0 13 7 NE - 10
23.01.2019 20:00:00 2,0 -2,0 16 9 NE - 10
23.01.2019 19:00:00 1,5 -2,1 18 10 NE 992,8 8
23.01.2019 18:00:00 1,0 0,0 13 7 NE - 4,0
23.01.2019 17:00:00 1,0 0,0 13 7 NE - 2,0
23.01.2019 16:00:00 0,6 0,3 13 7 NE 993,5 0,7
23.01.2019 15:00:00 1,0 0,0 13 7 NE - 0,8
23.01.2019 14:00:00 2,0 0,0 15 8 NE - 4,0
23.01.2019 13:00:00 2,7 -0,4 15 8 NE 994,8 5
23.01.2019 12:00:00 4,0 1,0 5 3 N - 10
23.01.2019 11:00:00 4,0 0,0 9 5 NNW - 10
23.01.2019 10:00:00 3,1 0,5 8 4 NE 996,3 10
23.01.2019 09:00:00 3,0 1,0 15 8 NE - 10
23.01.2019 08:00:00 2,0 0,0 18 10 NE - 4,0
23.01.2019 07:00:00 3,7 0,8 9 5 NNE 997,7 7
23.01.2019 06:00:00 5,0 -1,0 11 6 ENE - 10
23.01.2019 05:00:00 5,0 -2,0 8 4 NE - 10
23.01.2019 04:00:00 4,9 -3,6 13 7 NNE 998,4 10
23.01.2019 03:00:00 6,0 -5,0 13 7 NE - 10
23.01.2019 02:00:00 5,0 -5,0 11 6 NNE - 10
23.01.2019 01:00:00 4,7 -3,9 13 7 NNE 1000,5 10
23.01.2019 00:00:00 5,0 -4,0 11 6 NNE - 10
22.01.2019 23:00:00 6,0 -4,0 11 6 N - 10
22.01.2019 22:00:00 5,6 -4,6 11 6 N 1002,0 10
22.01.2019 21:00:00 6,0 -5,0 15 8 NE - 10
22.01.2019 20:00:00 6,0 -4,0 11 6 NNE - 10
22.01.2019 19:00:00 6,2 -4,4 8 4 NE 1003,4 10
22.01.2019 18:00:00 7,0 -4,0 8 4 NE - 10
22.01.2019 17:00:00 8,0 -4,0 11 6 NE - 10
22.01.2019 16:00:00 9,0 -5,4 9 5 NE 1004,1 10
22.01.2019 15:00:00 9,0 -5,0 13 7 NE - 10
22.01.2019 14:00:00 8,0 -4,0 13 7 NE - 10
22.01.2019 13:00:00 7,8 -3,9 8 4 ENE 1006,8 10
22.01.2019 12:00:00 7,0 -3,0 5 3 - - 10
22.01.2019 11:00:00 8,0 -3,0 13 7 W - 10
22.01.2019 10:00:00 5,6 -3,7 11 6 E 1008,8 10
22.01.2019 09:00:00 4,0 -4,0 5 3 ESE - 10
22.01.2019 08:00:00 5,0 -5,0 8 4 - - 10
22.01.2019 07:00:00 4,6 -5,1 9 5 E 1009,5 10
22.01.2019 06:00:00 4,0 -5,0 8 4 E - 10
22.01.2019 05:00:00 4,0 -5,0 13 7 E - 10
22.01.2019 04:00:00 4,3 -5,3 13 7 ESE 1011,0 10
22.01.2019 03:00:00 5,0 -6,0 9 5 E - 10
22.01.2019 02:00:00 6,0 -6,0 5 3 ESE - 10
22.01.2019 01:00:00 7,9 -7,0 5 3 - 1013,3 10
22.01.2019 00:00:00 7,0 -4,0 5 3 - - 10
21.01.2019 23:00:00 8,0 -6,0 18 10 NNE - 10
21.01.2019 22:00:00 6,8 -4,8 16 9 NE 1013,7 10
21.01.2019 21:00:00 6,0 -3,0 15 8 NE - 10
21.01.2019 20:00:00 6,0 -3,0 21 11 NE - 10
21.01.2019 19:00:00 7,5 -4,0 15 8 NNE 1013,5 10
21.01.2019 18:00:00 7,0 -2,0 11 6 NE - 10
21.01.2019 17:00:00 9,0 -2,0 21 11 NNE - 10
21.01.2019 16:00:00 9,1 -1,6 18 10 NNE 1013,7 10
21.01.2019 15:00:00 9,0 -2,0 16 9 NNE - 10
21.01.2019 14:00:00 9,0 -2,0 24 13 NNE - 10
21.01.2019 13:00:00 9,0 -2,0 18 10 NE 1014,8 10
21.01.2019 12:00:00 8,0 -1,0 16 9 NE - 10
21.01.2019 11:00:00 7,0 -1,0 11 6 NE - 10
21.01.2019 10:00:00 5,4 -1,4 9 5 ENE 1015,8 10
21.01.2019 09:00:00 4,0 -2,0 13 7 NE - 10
21.01.2019 08:00:00 4,0 -2,0 16 9 NNE - 10
21.01.2019 07:00:00 4,6 -1,8 15 8 ENE 1015,2 10
21.01.2019 06:00:00 5,0 -1,0 13 7 ENE - 10
21.01.2019 05:00:00 5,0 -1,0 9 5 ENE - 10
21.01.2019 04:00:00 5,2 -1,4 11 6 NE 1014,9 10
21.01.2019 03:00:00 6,0 -2,0 11 6 NNE - 10
21.01.2019 02:00:00 5,0 -2,0 8 4 NE - 10
21.01.2019 01:00:00 6,4 -2,8 11 6 NNE 1015,1 10
21.01.2019 00:00:00 5,0 -2,0 11 6 NE - 10
20.01.2019 23:00:00 6,0 -3,0 15 8 NNE - 10
20.01.2019 22:00:00 5,0 -1,2 11 6 NE 1014,9 10
20.01.2019 21:00:00 5,0 -1,0 16 9 NE - 10
20.01.2019 20:00:00 6,0 -1,0 11 6 NE - 10
20.01.2019 19:00:00 6,0 -1,8 11 6 NE 1014,3 10
20.01.2019 18:00:00 6,0 -2,0 15 8 NE - 10
20.01.2019 17:00:00 7,0 -1,0 18 10 NE - 10
20.01.2019 16:00:00 7,3 -1,1 18 10 NE 1013,1 10
20.01.2019 15:00:00 8,0 -1,0 16 9 NE - 10
20.01.2019 14:00:00 8,0 -1,0 18 10 NE - 10
20.01.2019 13:00:00 7,8 -0,6 18 10 NE 1013,6 10
20.01.2019 12:00:00 7,0 -1,0 21 11 NE - 10
20.01.2019 11:00:00 6,0 -1,0 21 11 NE - 10
20.01.2019 10:00:00 5,7 -1,2 18 10 NE 1014,0 10
20.01.2019 09:00:00 4,0 -1,0 22 12 NE - 10
20.01.2019 08:00:00 4,0 -1,0 16 9 NNE - 10
20.01.2019 07:00:00 4,5 -0,7 21 11 NNE 1013,2 10
20.01.2019 06:00:00 5,0 -1,0 22 12 NE - 10
20.01.2019 05:00:00 5,0 0,0 18 10 NNE - 10
20.01.2019 04:00:00 5,2 -0,6 21 11 NNE 1013,4 30
20.01.2019 03:00:00 6,0 -1,0 15 8 NE - 10
20.01.2019 02:00:00 6,0 -1,0 13 7 NNE - 10
20.01.2019 01:00:00 5,6 -0,9 16 9 NE 1014,0 10
20.01.2019 00:00:00 6,0 0,0 13 7 NE - 10
19.01.2019 23:00:00 6,0 0,0 11 6 ENE - 10
19.01.2019 22:00:00 6,0 -0,2 9 5 NNE 1014,4 10
19.01.2019 21:00:00 6,0 0,0 5 3 NE - 10
19.01.2019 20:00:00 7,0 0,0 8 4 - - 10
19.01.2019 19:00:00 6,2 0,5 18 10 NE 1014,1 10
19.01.2019 18:00:00 6,0 0,0 15 8 NE - 10
19.01.2019 17:00:00 7,0 0,0 11 6 NNE - 10
19.01.2019 16:00:00 7,0 0,2 4 2 - 1014,3 10
19.01.2019 15:00:00 7,0 0,0 11 6 N - 10
19.01.2019 14:00:00 7,0 0,0 11 6 N - 10
19.01.2019 13:00:00 6,4 0,4 8 4 NNE 1015,1 10
19.01.2019 12:00:00 7,0 0,0 21 11 N - 10
19.01.2019 11:00:00 7,0 1,0 11 6 N - 10
19.01.2019 10:00:00 6,7 0,6 16 9 NNE 1015,7 10
19.01.2019 09:00:00 7,0 1,0 16 9 NE - 10
19.01.2019 08:00:00 6,0 1,0 13 7 NE - 10
19.01.2019 07:00:00 6,7 0,8 15 8 NNE 1014,5 10
19.01.2019 06:00:00 7,0 1,0 15 8 NNE - 10
19.01.2019 05:00:00 7,0 1,0 11 6 NE - 10
19.01.2019 04:00:00 6,8 1,1 8 4 NE 1014,6 10
19.01.2019 03:00:00 7,0 1,0 11 6 NE - 10
19.01.2019 02:00:00 7,0 1,0 15 8 NE - 10
19.01.2019 01:00:00 6,7 0,3 15 8 NE 1015,0 10
19.01.2019 00:00:00 7,0 0,0 9 5 NE - 10
18.01.2019 23:00:00 7,0 0,0 11 6 NE - 10
18.01.2019 22:00:00 7,7 -0,2 13 7 NE 1013,6 10
18.01.2019 21:00:00 8,0 0,0 18 10 NNE - 10
18.01.2019 20:00:00 9,0 -2,0 13 7 ENE - 10
18.01.2019 19:00:00 9,2 -2,1 5 3 NE 1012,4 10
18.01.2019 18:00:00 11,0 -3,0 15 8 N - 10
18.01.2019 17:00:00 12,0 -4,0 18 10 N - 10
18.01.2019 16:00:00 12,1 -4,9 22 12 N 1011,7 10
18.01.2019 15:00:00 13,0 -4,0 16 9 N - 10
18.01.2019 14:00:00 14,0 -7,0 8 4 S - 10
18.01.2019 13:00:00 13,2 -8,4 9 5 - 1010,9 10
18.01.2019 12:00:00 13,0 -8,0 8 4 - - 10
18.01.2019 11:00:00 12,0 -7,0 11 6 N - 10
18.01.2019 10:00:00 10,9 -3,5 18 10 NNE 1010,8 10
18.01.2019 09:00:00 8,0 0,0 11 6 ENE - 10
18.01.2019 08:00:00 9,0 -2,0 15 8 NE - 10
18.01.2019 07:00:00 7,3 1,4 15 8 NE 1008,7 10
18.01.2019 06:00:00 7,0 2,0 13 7 NE - 10
18.01.2019 05:00:00 7,0 2,0 11 6 E - 10
18.01.2019 04:00:00 7,4 2,3 16 9 NE 1008,8 10
18.01.2019 03:00:00 8,0 2,0 13 7 NNE - 10
18.01.2019 02:00:00 8,0 2,0 9 5 NE - 10
18.01.2019 01:00:00 8,3 2,4 13 7 NE 1009,7 10
18.01.2019 00:00:00 9,0 3,0 8 4 NE - 10

tt = temperature
td = dewpoint
ff = wind speed
dd = wind direction
ppp = reduced air pressure
vv = visibility

Next stations